STARLINK-32371 (60916 NORAD) Tracking and Keplerian Element Data

This shows tracking and keplerian element data for the satellite.

Feedback or suggestion? Click here.




ElementValue
Catalog60916
NameSTARLINK-32371
Epoch Orbit781
Epoch Day286.8297615
Epoch Year2024
RAAN146.0259
Inclination53.1613
Eccentricity0.0001354
Argument of Perigee87.8707
Mean Anonmoly272.2449
Mean Motion15.30192605
Decay Rate9.03E-06
L11 60916U 24154P 24286.82976150 .00000903 00000+0 42607-4 0 9992
L22 60916 53.1613 146.0259 0001354 87.8707 272.2449 15.30192605 7818



Live tracking and technical data element details for STARLINK-32371 (NORAD 60916). STARLINK-32371 can be tracked NOW for your location showing map with azimuth and elevation plus other details from your city location.







IsCatalogInMostPopularTable: catalog: 60916, numindb: 10
Update: records affected: 1



GetName: 60916 STARLINK-32371

Hit Count: updated at: Fri, 06 Dec 2024 10:56:20 GMT